Location: Newark
(44.3681°N, 100.3364°W)
Time: 14:27:08
(UTC+00:00)

S-56A Canister/Altair - Pass Details

Date: 29 February 2020
Orbit: 634 x 2498 km, 38.9° (Epoch: 29 March)

Event Time Altitude Azimuth Distance (km) Brightness Sun altitude
Rises 21:35:40 0° 284° (WNW) 6,123 12.5 26.6°
Reaches altitude 10° 21:40:03 10° 277° (W) 5,161 12.4 26.0°
Maximum altitude 21:53:01 37° 219° (SW) 3,266 12.6 24.3°
Drops below altitude 10° 22:04:10 10° 158° (SSE) 4,419 11.7 22.7°
Sets 22:07:38 0° 150° (SSE) 5,179 11.8 22.2°
